Regional Weather Roundup
Issued by NWS

Home | Current Version | Previous Version | Text Only | Print | Product List | Glossary On
Versions: 1 2 3 4 5 6 7 8 9 10 11 12 13 14 15 16 17 18 19 20 21 22 23 24 25 26 27 28 29 30 31 32 33 34 35 36 37 38 39 40 41 42 43 44 45 46 47 48 49 50
000
ASUS44 KBMX 201410
RWRAL

ALABAMA REGIONAL WEATHER ROUNDUP
NATIONAL WEATHER SERVICE BIRMINGHAM AL
900 AM CDT WED SEP 20 2017

NOTE: "FAIR" INDICATES FEW OR NO CLOUDS BELOW 12,000 FEET
WITH NO SIGNIFICANT WEATHER AND/OR OBSTRUCTIONS TO VISIBILITY.

THE REMARK "TC" DENOTES TEMPERATURE IN DEGREES CELSIUS.

ALZ001>011-014-016>018-020-201500-
NORTH ALABAMA

CITY           SKY/WX    TMP DP  RH WIND       PRES   REMARKS
MUSCLE SHOALS  SUNNY     73  68  84 CALM      30.07R
HUNTSVILLE     SUNNY     73  70  90 S3        30.07R
DECATUR        SUNNY     72  71  97 S5        30.07R
HALEYVILLE     PTSUNNY   73  71  93 CALM      30.10R
GADSDEN        FOG       67  67 100 CALM      30.09R VSB 1/4
$$

ALZ012-013-022-023-030>036-040>044-201500-
WEST CENTRAL ALABAMA

CITY           SKY/WX    TMP DP  RH WIND       PRES   REMARKS
TUSCALOOSA     SUNNY     75  72  90 CALM      30.04
DEMOPOLIS        N/A     76  71  83 CALM      30.03R
$$

ALZ015-024>026-033>036-041>044-201500-
CENTRAL ALABAMA

CITY           SKY/WX    TMP DP  RH WIND       PRES   REMARKS
BIRMINGHAM     MOSUNNY   75  69  81 CALM      30.08R
MONTGOMERY     MOSUNNY   76  69  79 CALM      30.05R
SHELBY CO ARPT MOSUNNY   73  71  93 CALM      30.06R
MAXWELL AFB    MOSUNNY   75  70  83 CALM      30.05R
GREENVILLE     FAIR      76  70  82 CALM      30.05R
SELMA          FAIR      75  70  83 CALM      30.04R
PRATTVILLE     CLOUDY    69  69 100 CALM      30.05R FOG
BESSEMER       FAIR      72  70  93 CALM      30.08R
TALLADEGA      FAIR     N/A N/A N/A MISG      30.08R
PELL CITY      CLOUDY    68  68 100 CALM      30.08R FOG
MARION         PTSUNNY   74  72  93 S5        30.04R
SYLACAUGA      FAIR      70  70 100 CALM      30.07R
$$

ALZ019-021-028-029-037-038-045>048-201500-
EAST CENTRAL ALABAMA

CITY           SKY/WX    TMP DP  RH WIND       PRES   REMARKS
ANNISTON       SUNNY     71  67  87 NE3       30.08R
ALEXANDER CITY SUNNY     73  68  86 CALM      30.07R
AUBURN         NOT AVBL
$$

ALZ051>064-201500-
SOUTHWEST ALABAMA

CITY           SKY/WX    TMP DP  RH WIND       PRES   REMARKS
MOBILE         MOSUNNY   81  75  82 W5        30.04R
BROOKLEY FIELD MOSUNNY   83  77  82 W5        30.04R HX  92
EVERGREEN      MOSUNNY   78  74  87 S3        30.05R
$$

ALZ049-050-065>069-201500-
SOUTHEAST ALABAMA

CITY           SKY/WX    TMP DP  RH WIND       PRES   REMARKS
DOTHAN         PTSUNNY   76  73  91 CALM      30.08S
OZARK          CLOUDY    72  71  97 CALM      30.05R
TROY           CLOUDY    70  70 100 NE3       30.06R FOG
EUFAULA        FAIR      78  74  87 CALM      30.04S
$$



USA.gov is the U.S. government's official web portal to all federal, state and local government web resources and services.